Location: Martley
(52.2333°N, 2.3667°W)
Time: 22:33:46
(UTC+00:00)

CZ-2C R/B - Pass Details

Date: 11 December 2019
Orbit: 639 x 705 km, 98.4° (Epoch: 24 January)

Event Time Altitude Azimuth Distance (km) Brightness Sun altitude
Rises 06:26:17 0° 157° (SSE) 3,064 7.8 -14.5°
Reaches altitude 10° 06:28:30 10° 156° (SSE) 2,158 7.0 -14.2°
Maximum altitude 06:33:14 74° 72° (ENE) 736 4.0 -13.5°
Drops below altitude 10° 06:38:02 10° 348° (NNW) 2,189 6.1 -12.8°
Enters shadow 06:40:06 - 347° (NNW) 3,027 6.8 -12.5°
